{"data":{"norad_id":59962,"epoch":"2026-09-21T21:35:04.055136Z","epoch_age_seconds":56736,"freshness":"FRESH","line1":"1 59962U 24107T   26264.89935249 -.00000617  00000+0 -71182-5 0  9993","line2":"2 59962  53.1604 230.8512 0001430  89.4898 270.6268 15.34384958129886","mean_motion":15.34384958,"eccentricity":0.000143,"inclination_deg":53.1604,"raan_deg":230.8512,"arg_perigee_deg":89.4898,"mean_anomaly_deg":270.6268,"bstar":-7.1182e-6,"rev_number":12988,"period_min":93.848678096856,"perigee_km":461.76970201866,"apogee_km":463.72619511394,"semimajor_km":6840.8849485663,"source":"CELESTRAK","updated_at":"2026-09-22T09:00:49.118836Z"}}